Temp
9 10 11 10 10 10 10 10 11 12 11 11 13 14 14 14 15 14 13 13 14 15 16 18 19 20 20 19 20 20 18 20 22 23 21 20 21 21 21 19 20 22 22 22 23
9 10 10 10 9 9 10 11 12 11 11 13 14 13 13 13 15 13 13 13 14 16 18 19 20 20 19 19 19 19 19 20 20 20 19 20 20 20 19 19 19 20 22 23 23
9 10 10 10 9 9 10 10 11 11 11 13 13 13 14 15 15 13 13 13 14 15 16 18 19 20 19 20 19 19 19 19 20 19 18 18 18 19 18 17 18 19 19 19 20
9 10 10 10 9 9 10 10 10 11 11 12 13 14 15 15 13 13 13 14 14 15 17 18 19 19 19 19 19 17 19 19 18 17 16 16 17 16 17 17 18 18 19 18 17
9 9 9 9 9 10 10 10 10 10 10 12 14 14 15 14 13 13 14 14 15 16 17 17 19 18 19 19 18 18 18 18 17 16 16 16 15 15 16 17 18 19 19 17 17
9 9 9 9 10 10 10 11 11 11 12 13 14 14 16 11 13 13 13 14 14 15 15 16 16 17 17 17 17 16 16 16 17 17 16 15 15 15 16 18 18 19 18 17 17
9 9 9 9 10 10 10 11 10 12 12 13 13 13 12 11 13 13 13 13 13 14 14 14 15 17 17 16 15 16 14 16 16 17 16 14 14 15 16 18 18 18 18 17 17
9 9 9 9 10 10 10 10 10 12 13 14 14 14 11 12 13 14 14 14 13 13 13 13 14 15 15 15 16 15 17 15 16 15 14 14 13 16 18 18 17 17 18 17 17
9 9 9 9 10 10 11 10 11 12 14 14 15 15 12 12 13 13 13 14 14 13 13 14 15 14 15 15 15 16 15 17 16 16 15 14 12 15 16 16 16 17 17 17 17
10 8 8 10 10 10 12 13 13 14 14 15 16 14 13 13 13 13 13 13 14 14 14 15 14 14 14 12 12 13 14 15 15 16 14 14 14 16 16 17 16 16 16 15 15
8 9 9 10 10 11 12 12 13 13 14 14 14 13 14 13 13 13 13 14 15 16 14 13 9 11 13 13 14 13 13 14 15 16 14 14 14 15 16 16 16 15 13 12 12
9 10 8 10 11 12 12 12 9 12 13 15 14 14 13 13 14 14 14 15 15 13 14 13 12 13 13 13 13 14 12 14 16 15 14 14 14 16 17 17 13 12 11 9 11
9 11 11 12 12 12 10 9 10 11 14 13 14 14 13 14 13 13 14 14 14 13 14 13 13 14 13 14 15 15 15 13 11 13 14 13 14 16 16 16 14 11 10 9 10
11 11 12 12 13 13 11 12 12 10 12 13 14 13 14 14 14 13 13 13 14 13 13 14 13 13 13 14 15 14 14 13 12 11 10 12 10 15 16 16 12 9 8 9 9
11 12 12 12 12 12 11 12 11 10 13 14 14 14 14 14 14 13 13 13 13 13 13 14 14 14 14 15 15 15 14 13 13 11 11 14 10 14 12 12 11 9 9 9 8
11 12 12 12 12 12 11 10 11 12 10 10 14 15 15 15 15 15 14 13 14 14 14 14 13 13 14 14 14 14 13 12 13 11 11 13 11 12 10 10 9 8 8 8 9
11 12 13 12 12 11 11 12 10 11 13 12 14 15 16 16 16 16 16 15 14 11 10 14 14 14 13 13 15 13 11 12 11 11 11 13 11 12 11 11 9 8 8 8 9
12 12 13 12 12 12 12 13 11 13 13 14 15 15 16 16 16 16 16 16 15 15 13 13 12 14 13 14 14 14 11 12 12 12 12 13 11 12 12 10 9 9 9 9 9
12 12 12 11 12 12 12 11 12 14 15 15 15 16 16 16 15 16 17 16 16 15 13 13 14 15 14 15 15 14 12 14 12 13 12 12 15 13 13 11 10 10 10 10 10
12 12 13 13 12 11 12 12 12 14 15 15 16 16 17 17 16 17 17 16 16 15 15 15 11 16 15 15 14 14 14 13 12 14 13 13 13 12 11 11 12 11 11 11 10
12 13 13 13 12 12 11 14 14 14 15 16 16 16 17 16 16 16 17 16 16 15 15 14 14 14 15 14 14 13 13 14 14 14 13 12 12 14 10 11 11 12 12 12 11
12 13 13 12 14 15 14 15 14 14 14 15 15 16 16 16 16 16 17 17 16 16 14 14 13 10 14 16 16 15 15 15 11 15 13 13 12 17 14 13 13 13 14 14 12
13 14 14 13 14 14 14 14 15 14 15 15 15 16 16 15 15 16 17 15 15 15 15 14 12 10 14 14 14 13 15 15 15 10 10 12 13 17 15 14 14 13 13 12 13
12 12 13 14 14 16 15 15 14 14 14 15 15 16 15 15 15 15 16 16 15 14 13 13 13 12 10 14 14 14 15 14 12 9 12 13 15 17 17 16 14 13 12 12 11
12 12 10 13 14 14 15 16 15 14 14 15 15 14 15 15 16 15 16 16 13 13 13 12 11 12 11 13 13 13 13 14 12 12 12 15 14 15 15 15 16 15 13 12 11
11 12 11 13 13 14 12 15 15 16 15 14 13 16 15 14 15 14 14 15 14 12 13 13 10 11 10 13 13 13 13 13 13 14 13 13 13 15 15 15 15 17 15 13 12
11 11 11 12 14 14 14 15 15 15 15 15 15 14 14 14 14 13 13 13 13 14 12 13 11 10 10 12 12 12 15 14 14 14 14 13 15 15 15 16 15 15 15 14 13
Height
751 753 753 755 759 766 769 770 776 781 787 790 791 792 796 798 800 802 803 809 807 805 804 804 802 803 802 804 804 803 815 814 802 800 807 805 807 802 803 807 803 797 796 796 796
753 756 760 763 763 768 768 771 769 780 787 791 792 795 797 799 799 804 813 809 807 805 803 803 803 803 804 805 807 808 812 810 806 807 809 807 809 808 808 807 804 799 794 794 794
756 759 766 772 768 771 770 772 775 785 789 792 795 797 798 799 800 814 813 810 809 807 807 806 805 802 806 805 810 807 813 810 806 810 813 814 814 808 810 811 804 804 798 795 795
762 764 764 767 773 768 771 779 782 788 791 794 797 799 799 799 816 819 816 812 811 809 809 807 804 804 806 809 809 817 809 810 810 814 818 818 815 815 813 804 799 798 797 797 797
768 770 769 767 765 766 776 784 788 791 795 798 800 801 802 808 821 821 818 815 813 812 810 808 805 805 807 809 812 813 811 813 813 815 817 815 817 817 810 801 798 796 795 795 795
774 776 775 775 776 777 780 788 792 795 800 802 803 803 804 818 824 822 820 818 815 814 813 810 812 808 810 813 817 818 817 816 813 815 816 818 815 814 801 795 794 792 792 792 793
778 780 780 778 778 778 785 791 795 799 803 806 807 807 812 826 825 824 822 821 819 816 815 815 814 811 813 816 819 818 823 813 810 813 817 819 815 808 794 792 793 793 791 790 789
781 784 782 784 783 783 789 794 799 803 808 809 809 808 824 826 826 825 824 822 820 820 818 818 816 817 819 820 819 822 817 822 817 818 821 822 821 802 792 794 795 792 788 785 784
783 787 790 789 787 787 792 799 805 811 812 810 810 811 827 828 828 826 825 824 823 822 820 819 819 821 821 822 824 819 824 817 817 817 818 822 821 804 795 796 794 789 786 784 782
787 789 795 795 796 799 803 808 813 814 812 813 813 815 826 829 829 828 827 825 824 822 822 820 822 824 825 833 840 836 832 823 824 815 817 816 808 797 792 789 788 786 785 786 786
795 796 797 803 806 809 808 813 816 816 818 822 824 824 828 830 829 829 828 825 822 820 824 826 842 839 834 834 834 835 836 830 818 811 815 811 805 795 787 786 786 789 792 791 793
803 805 809 810 810 809 808 806 817 822 826 826 827 829 830 829 827 830 827 825 822 831 826 830 839 834 834 834 834 832 837 824 812 812 818 808 801 787 781 784 791 798 799 799 794
813 814 816 814 813 811 810 818 821 820 823 832 831 832 832 830 832 832 830 829 828 831 829 831 835 835 836 832 826 822 822 827 837 824 808 809 797 783 785 784 789 798 801 801 797
819 819 818 818 819 819 823 823 821 823 829 837 832 834 833 831 833 835 834 835 829 834 833 832 836 835 834 828 822 825 825 830 830 833 839 816 831 789 785 784 793 802 803 800 797
821 821 820 820 821 823 826 823 824 828 834 837 834 834 833 834 837 835 836 833 836 834 836 833 832 832 831 825 826 825 823 827 827 834 831 810 834 794 794 795 798 801 802 799 796
824 823 823 824 823 825 824 822 822 825 857 851 835 832 831 831 833 832 834 836 834 832 830 829 830 832 827 827 827 825 826 828 825 832 834 813 822 804 805 804 802 800 798 796 795
827 826 825 825 826 824 822 822 837 843 847 845 837 833 830 830 828 829 828 829 833 846 847 827 826 827 830 829 824 827 835 827 834 830 833 811 825 796 795 794 799 798 796 797 793
829 827 826 825 825 824 823 825 843 841 841 837 836 831 831 831 828 825 823 826 829 829 835 837 844 828 828 828 829 826 835 836 838 835 826 808 817 793 785 790 792 792 790 793 789
830 831 830 828 827 826 827 840 845 839 835 833 832 828 828 828 832 825 823 827 829 830 840 835 827 820 825 821 826 824 834 828 835 824 826 811 785 783 782 785 786 784 782 786 781
831 832 831 828 827 828 831 838 840 834 834 833 830 829 827 826 828 823 820 825 828 830 830 830 844 816 821 822 823 825 825 834 838 827 826 803 794 793 786 784 777 777 779 778 778
832 830 829 828 829 829 837 832 833 833 833 831 828 828 826 828 827 826 824 827 826 828 829 830 833 825 819 823 819 830 828 826 823 825 829 822 800 765 781 778 776 773 773 772 776
832 831 828 827 829 822 829 827 831 834 835 833 832 828 828 826 828 825 824 821 823 826 830 830 833 843 819 806 807 812 812 812 841 816 821 819 801 756 764 769 769 768 765 766 771
832 829 827 826 830 829 830 831 830 833 832 833 832 830 828 833 835 826 822 824 825 828 829 829 837 850 819 817 813 816 809 811 811 831 831 825 792 754 759 762 762 763 763 765 767
835 838 829 825 827 825 828 828 831 832 832 830 831 828 833 832 828 829 825 823 826 829 832 833 831 832 841 812 813 816 809 808 817 839 815 797 773 758 756 757 757 758 758 760 764
835 840 842 835 831 830 830 825 831 835 836 831 830 832 831 832 824 827 822 823 827 829 833 835 836 828 823 812 810 807 805 805 811 806 810 773 775 763 761 758 752 748 751 756 760
841 840 839 836 835 834 835 827 828 827 832 834 836 825 828 831 826 828 828 826 826 832 833 830 838 828 824 803 802 798 791 793 791 789 788 785 777 759 755 751 749 742 746 750 753
843 843 842 837 833 834 830 826 825 826 824 825 827 830 828 824 824 824 825 825 823 824 829 827 834 837 827 804 800 797 768 771 775 770 772 781 754 756 753 748 747 746 744 745 747
Wind_Speed
5 11 13 13 13 9 5 8 7 25 21 18 22 27 22 17 18 17 20 10 9 6 4 0 1 2 6 3 3 2 1 3 5 3 4 4 3 5 1 6 7 5 5 11 16
18 17 19 14 14 9 6 6 12 29 22 22 27 20 19 15 25 27 12 12 10 11 5 2 4 4 2 2 1 2 1 5 5 6 5 6 2 6 5 7 10 7 10 15 13
19 16 18 18 14 16 13 10 27 22 19 23 20 18 8 4 8 12 16 14 10 8 6 4 2 4 3 2 1 2 2 5 4 6 6 6 8 7 7 8 10 9 9 12 18
16 16 15 15 15 18 15 10 21 17 16 18 19 10 9 4 5 10 14 12 10 6 2 1 3 2 3 3 3 3 1 3 4 5 3 6 9 7 9 14 10 10 8 8 9
21 20 17 14 15 16 21 18 17 18 12 18 15 6 5 10 8 9 10 12 9 7 8 4 3 3 2 4 2 2 5 4 4 5 5 7 8 9 15 13 13 13 9 8 7
20 19 13 14 14 15 23 24 19 18 12 15 7 4 5 9 7 8 10 12 13 12 15 13 6 6 6 5 3 5 7 8 5 4 6 8 10 7 10 7 10 9 7 6 7
17 15 14 14 15 16 25 24 17 11 14 10 18 22 21 8 6 7 11 12 12 14 12 12 6 4 5 2 4 5 5 8 7 0 3 6 8 8 14 8 5 7 7 8 7
11 13 13 15 14 21 33 28 23 21 16 9 10 14 6 2 6 9 6 9 11 10 7 8 8 4 4 1 3 3 3 4 3 3 4 3 6 11 6 5 8 10 11 9 9
8 12 15 19 19 41 33 32 24 17 10 5 3 10 6 1 5 8 10 8 4 7 6 5 4 2 2 3 2 3 4 6 1 5 2 5 8 10 12 16 15 11 8 8 6
15 14 19 26 28 33 34 28 17 8 4 2 6 7 3 4 4 5 7 6 3 2 3 2 3 0 3 5 3 4 4 6 7 3 7 10 16 17 11 10 9 8 7 9 12
27 26 24 32 23 20 22 11 2 6 22 11 10 14 8 3 2 6 7 7 2 0 4 4 6 5 5 6 4 4 7 9 11 6 9 8 15 19 12 7 5 8 11 12 11
31 35 27 16 11 9 9 5 5 3 10 13 14 13 8 1 3 10 11 3 4 5 4 1 5 5 3 2 4 3 7 8 5 10 14 11 18 19 1 3 9 11 9 12 13
24 22 15 12 13 22 21 11 5 8 4 4 6 6 4 8 5 8 10 2 4 5 5 4 5 2 2 6 6 6 4 7 4 13 13 7 7 3 5 5 10 12 8 10 13
8 9 11 9 10 10 6 5 6 6 3 7 5 4 3 3 2 4 5 4 1 3 4 3 3 1 3 7 4 6 5 4 7 8 4 8 5 5 4 1 8 8 8 11 10
8 5 3 6 8 4 1 6 5 5 4 7 4 1 2 3 3 2 1 4 2 1 3 2 4 3 4 3 4 3 7 8 6 5 6 2 1 5 6 5 8 8 8 9 6
6 6 7 6 5 2 5 5 2 3 3 4 3 3 3 1 2 2 4 4 1 3 4 2 4 2 4 5 4 8 6 6 2 1 2 6 4 5 3 3 7 6 9 8 9
9 4 3 3 2 7 8 3 5 5 3 2 1 2 4 3 3 1 2 4 2 4 4 3 4 3 1 4 4 1 5 1 2 1 4 3 1 10 5 5 7 9 11 8 9
11 3 3 4 6 7 4 3 8 1 1 1 2 6 1 5 3 3 4 2 3 4 2 1 4 5 8 2 2 0 3 3 3 4 5 6 5 6 6 6 7 8 10 8 8
7 5 2 8 7 5 2 5 2 2 1 2 5 4 4 3 2 4 2 2 3 3 4 5 2 3 7 2 2 2 1 2 2 5 4 4 6 1 6 7 9 9 8 7 5
3 4 3 7 4 2 3 4 4 3 4 6 0 2 4 4 3 2 1 4 2 1 3 2 5 3 6 2 6 4 4 1 1 4 5 6 5 5 7 9 9 8 7 5 4
1 2 1 5 2 3 2 2 3 6 5 2 1 1 1 2 2 3 3 4 2 4 3 4 2 2 3 6 5 3 3 5 2 4 2 4 6 4 8 8 9 8 7 5 5
3 2 2 1 1 2 2 2 3 5 2 2 4 3 2 2 3 3 3 2 5 1 3 3 3 4 7 3 4 3 4 4 3 2 3 3 7 5 7 8 8 8 6 4 5
3 2 2 2 1 2 2 3 2 3 3 2 3 3 2 4 3 6 2 5 4 3 3 3 3 4 1 3 2 4 5 6 1 4 6 2 6 5 7 7 8 8 7 4 3
3 3 2 1 1 1 2 3 3 2 2 2 5 1 3 4 6 5 3 3 3 3 4 1 4 6 5 4 4 6 6 7 7 3 4 10 13 11 4 6 7 9 8 6 5
2 2 1 4 3 5 4 2 4 3 3 4 3 7 5 4 3 5 4 3 6 6 2 3 5 7 11 16 16 18 17 14 13 13 7 4 9 12 10 12 13 9 9 8 8
3 3 2 2 2 5 4 2 4 4 4 4 5 3 8 6 6 6 7 4 7 5 3 5 4 7 12 18 17 18 18 20 21 20 21 22 27 20 20 7 8 3 7 7 8
2 2 2 1 3 1 1 3 1 3 5 6 1 5 8 6 4 5 6 7 8 3 6 5 3 5 5 10 13 11 12 18 9 7 17 17 22 8 6 6 5 7 6 8 8
Wind_Direction
176 126 119 106 118 167 165 186 155 160 153 147 132 125 119 101 84 63 47 22 3 1 8 351 119 144 136 108 352 295 285 273 353 46 61 110 331 129 158 286 300 276 289 305 319
126 113 107 113 123 145 151 5 195 145 146 140 135 133 131 112 79 52 19 16 10 22 25 252 134 196 93 93 108 267 286 30 17 31 355 355 247 307 325 310 286 284 257 255 269
112 106 109 111 113 134 139 84 111 127 136 141 146 143 108 357 71 19 2 10 8 15 18 10 31 327 117 203 84 96 301 44 42 39 8 315 302 293 280 262 257 272 308 336 338
105 104 93 86 97 111 114 133 112 113 127 144 146 114 43 341 80 4 5 13 8 9 13 265 214 186 157 169 78 285 66 359 10 49 331 305 326 302 285 259 304 298 299 319 316
92 91 90 79 73 98 129 133 112 127 129 148 135 94 59 77 58 13 15 22 31 40 38 358 51 357 119 64 297 254 23 2 317 307 283 283 281 275 283 278 280 273 287 294 286
95 95 87 91 95 121 138 144 124 109 125 132 118 59 100 79 34 33 34 39 35 54 42 37 29 340 59 49 345 357 327 298 298 314 314 303 299 310 257 277 293 293 265 269 269
97 92 89 90 105 110 144 140 140 117 126 119 95 86 65 86 56 48 47 45 42 43 56 38 357 16 330 116 32 318 312 290 215 244 338 354 283 225 251 257 346 308 283 271 275
97 91 81 85 116 144 128 125 130 128 127 97 87 79 74 17 60 42 25 43 41 42 52 34 27 77 11 20 222 271 250 295 79 122 114 84 270 304 20 322 289 297 282 273 278
111 93 90 89 94 119 120 120 118 130 123 61 63 110 99 83 45 31 30 20 24 41 43 42 28 44 201 320 292 176 291 350 159 169 206 185 286 282 309 297 283 275 303 291 306
108 91 97 108 108 110 113 113 102 78 103 118 69 88 141 73 37 343 7 360 5 268 168 38 39 112 351 24 22 338 336 331 306 209 232 300 277 277 277 287 284 310 318 1 2
87 94 102 114 110 122 127 135 211 48 56 53 74 86 88 109 30 16 351 319 240 165 32 26 58 55 40 22 5 7 311 295 283 26 321 272 292 287 277 281 318 8 14 0 344
96 100 106 86 71 88 56 59 29 46 70 64 85 80 79 337 56 28 347 18 42 40 148 117 79 58 38 357 315 251 268 287 326 355 321 289 292 290 94 111 82 30 359 351 331
91 82 73 64 63 54 73 60 40 17 99 75 64 56 17 4 33 12 356 301 14 37 23 53 73 88 313 298 285 286 316 4 329 327 285 321 284 155 160 213 49 22 356 337 331
93 78 82 56 55 62 56 38 10 359 107 7 20 49 22 351 54 356 6 347 115 53 358 85 122 254 287 271 360 302 33 356 316 345 312 16 288 325 111 23 21 352 352 328 328
106 109 4 72 111 50 326 333 322 226 69 347 26 322 329 11 328 133 8 260 33 356 223 181 191 229 273 28 357 307 355 310 300 280 315 311 356 258 45 305 322 340 323 300 306
100 106 67 62 69 81 338 325 308 46 54 335 318 314 247 187 160 191 222 229 255 233 202 221 128 235 329 325 280 316 310 313 216 277 269 225 128 268 251 248 303 316 290 287 312
54 114 91 33 41 324 339 269 31 62 222 301 14 345 283 16 157 355 253 159 46 21 4 286 182 142 265 277 173 328 353 334 343 267 238 100 61 251 196 212 238 276 291 314 299
9 39 357 357 322 331 322 52 62 56 89 209 255 237 29 354 124 331 295 98 102 26 290 346 307 195 158 247 270 133 104 42 314 338 293 179 239 264 182 186 231 241 255 270 283
3 343 356 315 332 341 292 53 113 68 226 225 208 262 154 141 280 324 93 65 56 30 358 355 283 110 183 258 255 119 19 34 299 250 275 236 258 222 181 216 230 237 242 246 277
14 310 269 335 323 7 71 123 159 206 199 232 68 291 359 34 320 351 24 95 111 30 7 347 300 275 118 244 225 245 353 288 187 308 298 281 254 237 217 231 237 246 242 219 234
102 258 173 335 326 220 120 121 150 192 226 274 116 259 329 346 342 296 315 129 127 125 302 313 183 285 154 199 174 171 238 215 232 238 266 305 275 200 213 208 230 248 242 208 221
302 278 341 353 238 266 67 113 43 145 202 304 319 320 279 358 282 259 245 103 103 29 271 78 312 269 238 87 67 334 281 258 138 259 293 283 269 148 176 180 206 249 242 176 152
320 308 330 43 14 102 175 115 319 141 197 190 246 271 1 317 287 234 303 108 150 212 310 104 260 311 316 50 89 224 209 233 253 49 226 259 263 177 174 185 209 229 265 189 206
315 346 316 212 226 333 177 190 175 88 295 255 297 42 287 257 235 293 289 157 119 248 92 42 259 222 228 265 346 258 272 209 185 193 247 234 278 284 260 234 218 210 208 220 202
19 73 65 328 41 341 21 22 217 162 246 202 236 229 224 271 261 230 250 282 188 153 208 241 266 260 267 275 277 270 264 246 232 215 227 254 287 283 309 308 291 224 187 192 203
352 352 175 279 318 291 136 206 263 218 172 219 243 329 210 243 272 312 339 319 252 144 222 204 269 312 293 267 257 262 250 242 239 245 242 253 271 279 276 283 316 223 184 198 207
21 229 274 177 166 266 279 274 46 336 221 253 336 287 268 258 323 304 283 273 270 243 205 207 221 348 267 335 310 288 268 229 217 224 225 241 250 283 302 306 273 280 251 219 210